| time (UTC) | temp F | wind direction | speed MPH | gust MPH | rain 1hr in | rain 24hr in | rain mn in | humidity % | barometer mb |
| 20260906032027 | 71 | 81 | 8.0 | 18.0 | 0.00 | 0.00 | 0.00 | 52 | 1021.7 |
| 20260906031610 | 71 | 16 | 8.0 | 16.0 | 0.00 | 0.00 | 0.00 | 52 | 1021.6 |
| 20260906031025 | 71 | 63 | 9.0 | 18.0 | 0.00 | 0.00 | 0.00 | 52 | 1021.6 |
| 20260906030525 | 71 | 53 | 7.0 | 18.0 | 0.00 | 0.00 | 0.00 | 52 | 1021.5 |
| 20260906030050 | 71 | 80 | 8.0 | 17.0 | 0.00 | 0.00 | 0.00 | 52 | 1021.5 |
| 20260906025524 | 71 | 66 | 6.0 | 18.0 | 0.00 | 0.00 | 0.00 | 52 | 1021.5 |
| 20260906025028 | 71 | 60 | 7.0 | 18.0 | 0.00 | 0.00 | 0.00 | 52 | 1021.4 |
| 20260906024557 | 71 | 127 | 8.0 | 16.0 | 0.00 | 0.00 | 0.00 | 52 | 1021.4 |
| 20260906024025 | 71 | 59 | 8.0 | 17.0 | 0.00 | 0.00 | 0.00 | 52 | 1021.5 |
| 20260906023530 | 72 | 94 | 8.0 | 17.0 | 0.00 | 0.00 | 0.00 | 52 | 1021.3 |
| 20260906023057 | 72 | 323 | 4.0 | 13.0 | 0.00 | 0.00 | 0.00 | 52 | 1021.4 |
| 20260906022525 | 72 | 115 | 4.0 | 14.0 | 0.00 | 0.00 | 0.00 | 52 | 1021.4 |
| 20260906022025 | 72 | 102 | 5.0 | 15.0 | 0.00 | 0.00 | 0.00 | 52 | 1021.4 |
| 20260906021546 | 72 | 39 | 6.0 | 15.0 | 0.00 | 0.00 | 0.00 | 52 | 1021.3 |
| 20260906021023 | 72 | 49 | 7.0 | 15.0 | 0.00 | 0.00 | 0.00 | 52 | 1021.3 |
| 20260906020527 | 72 | 48 | 4.0 | 13.0 | 0.00 | 0.00 | 0.00 | 52 | 1021.0 |
| 20260906020505 | 72 | 55 | 5.0 | 12.0 | 0.00 | 0.00 | 0.00 | 52 | 1021.1 |
| 20260906015525 | 72 | 297 | 4.0 | 12.0 | 0.00 | 0.00 | 0.00 | 52 | 1021.1 |
| 20260906015024 | 72 | 49 | 5.0 | 11.0 | 0.00 | 0.00 | 0.00 | 52 | 1021.0 |
| 20260906014546 | 72 | 25 | 6.0 | 12.0 | 0.00 | 0.00 | 0.00 | 52 | 1021.1 |
| 20260906014026 | 72 | 18 | 5.0 | 13.0 | 0.00 | 0.00 | 0.00 | 52 | 1021.2 |
| 20260906013527 | 72 | 18 | 5.0 | 14.0 | 0.00 | 0.00 | 0.00 | 53 | 1021.3 |
| 20260906013050 | 72 | 30 | 7.0 | 14.0 | 0.00 | 0.00 | 0.00 | 53 | 1021.2 |
| 20260906012525 | 72 | 52 | 6.0 | 14.0 | 0.00 | 0.00 | 0.00 | 53 | 1021.1 |
| 20260906012024 | 72 | 58 | 8.0 | 14.0 | 0.00 | 0.00 | 0.00 | 52 | 1021.1 |
| 20260906011548 | 73 | 64 | 7.0 | 14.0 | 0.00 | 0.00 | 0.00 | 53 | 1021.1 |
| 20260906011023 | 73 | 82 | 7.0 | 13.0 | 0.00 | 0.00 | 0.00 | 52 | 1021.1 |
| 20260906010525 | 73 | 4 | 7.0 | 13.0 | 0.00 | 0.00 | 0.00 | 52 | 1021.1 |
| 20260906010051 | 73 | 78 | 7.0 | 13.0 | 0.00 | 0.00 | 0.00 | 52 | 1021.0 |
| 20260906005524 | 73 | 38 | 7.0 | 13.0 | 0.00 | 0.00 | 0.00 | 52 | 1021.1 |
| 20260906005025 | 73 | 57 | 7.0 | 13.0 | 0.00 | 0.00 | 0.00 | 52 | 1021.0 |
| 20260906004557 | 73 | 61 | 6.0 | 11.0 | 0.00 | 0.00 | 0.00 | 52 | 1021.1 |
| 20260906004026 | 73 | 6 | 6.0 | 12.0 | 0.00 | 0.00 | 0.00 | 52 | 1021.1 |
| 20260906003525 | 73 | 11 | 6.0 | 13.0 | 0.00 | 0.00 | 0.00 | 52 | 1021.0 |
| 20260906003050 | 73 | 53 | 7.0 | 13.0 | 0.00 | 0.00 | 0.00 | 52 | 1021.2 |
| 20260906002524 | 73 | 49 | 5.0 | 13.0 | 0.00 | 0.00 | 0.00 | 52 | 1021.0 |
| 20260906002026 | 73 | 36 | 6.0 | 11.0 | 0.00 | 0.00 | 0.00 | 53 | 1021.1 |
| 20260906001548 | 73 | 25 | 5.0 | 11.0 | 0.00 | 0.00 | 0.00 | 53 | 1021.1 |
| 20260906001025 | 73 | 68 | 5.0 | 11.0 | 0.00 | 0.00 | 0.00 | 53 | 1021.0 |
| 20260906000524 | 73 | 17 | 4.0 | 11.0 | 0.00 | 0.00 | 0.00 | 53 | 1021.0 |
| 20260906000054 | 73 | 49 | 4.0 | 11.0 | 0.00 | 0.00 | 0.00 | 52 | 1020.9 |
| 20260905235524 | 73 | 49 | 5.0 | 13.0 | 0.00 | 0.00 | 0.00 | 52 | 1021.0 |
| 20260905235028 | 73 | 105 | 6.0 | 13.0 | 0.00 | 0.00 | 0.00 | 52 | 1021.1 |
| 20260905234559 | 73 | 61 | 5.0 | 13.0 | 0.00 | 0.00 | 0.00 | 52 | 1021.3 |
| 20260905234025 | 73 | 84 | 6.0 | 14.0 | 0.00 | 0.00 | 0.00 | 52 | 1021.0 |
| 20260905233524 | 73 | 62 | 7.0 | 14.0 | 0.00 | 0.00 | 0.00 | 51 | 1021.0 |
| 20260905233049 | 73 | 60 | 6.0 | 12.0 | 0.00 | 0.00 | 0.00 | 51 | 1021.0 |
| 20260905232526 | 73 | 8 | 5.0 | 12.0 | 0.00 | 0.00 | 0.00 | 50 | 1021.0 |
| 20260905232024 | 73 | 39 | 5.0 | 10.0 | 0.00 | 0.00 | 0.00 | 49 | 1021.0 |
| 20260905231546 | 73 | 52 | 6.0 | 12.0 | 0.00 | 0.00 | 0.00 | 48 | 1021.0 |
| 20260905231025 | 74 | 61 | 6.0 | 12.0 | 0.00 | 0.00 | 0.00 | 47 | 1021.0 |
| 20260905230524 | 74 | 8 | 5.0 | 11.0 | 0.00 | 0.00 | 0.00 | 47 | 1021.0 |
| 20260905230052 | 74 | 32 | 4.0 | 9.0 | 0.00 | 0.00 | 0.00 | 46 | 1021.0 |
| 20260905225528 | 74 | 72 | 4.0 | 9.0 | 0.00 | 0.00 | 0.00 | 45 | 1021.1 |
| 20260905225025 | 74 | 64 | 5.0 | 9.0 | 0.00 | 0.00 | 0.00 | 45 | 1021.2 |
| 20260905224546 | 74 | 77 | 5.0 | 8.0 | 0.00 | 0.00 | 0.00 | 45 | 1021.1 |
| 20260905224025 | 74 | 348 | 4.0 | 10.0 | 0.00 | 0.00 | 0.00 | 45 | 1021.1 |
| 20260905223525 | 74 | 34 | 6.0 | 10.0 | 0.00 | 0.00 | 0.00 | 44 | 1021.1 |
| 20260905223044 | 74 | 33 | 5.0 | 10.0 | 0.00 | 0.00 | 0.00 | 44 | 1021.2 |
| 20260905222523 | 74 | 74 | 5.0 | 9.0 | 0.00 | 0.00 | 0.00 | 44 | 1021.1 |
| 20260905222024 | 74 | 69 | 3.0 | 8.0 | 0.00 | 0.00 | 0.00 | 43 | 1021.0 |
| 20260905221549 | 74 | 46 | 4.0 | 9.0 | 0.00 | 0.00 | 0.00 | 43 | 1021.0 |
| 20260905221026 | 75 | 59 | 4.0 | 9.0 | 0.00 | 0.00 | 0.00 | 43 | 1021.0 |
| 20260905220524 | 75 | 53 | 5.0 | 10.0 | 0.00 | 0.00 | 0.00 | 41 | 1021.0 |
| 20260905220046 | 76 | 98 | 5.0 | 10.0 | 0.00 | 0.00 | 0.00 | 40 | 1021.0 |
| 20260905215523 | 76 | 58 | 5.0 | 10.0 | 0.00 | 0.00 | 0.00 | 40 | 1021.1 |
| 20260905215025 | 75 | 50 | 5.0 | 10.0 | 0.00 | 0.00 | 0.00 | 40 | 1021.1 |
| 20260905214552 | 74 | 49 | 4.0 | 10.0 | 0.00 | 0.00 | 0.00 | 40 | 1021.0 |
| 20260905214025 | 75 | 60 | 4.0 | 10.0 | 0.00 | 0.00 | 0.00 | 40 | 1021.1 |
| 20260905213526 | 75 | 45 | 3.0 | 8.0 | 0.00 | 0.00 | 0.00 | 39 | 1021.1 |
| 20260905213048 | 76 | 69 | 4.0 | 8.0 | 0.00 | 0.00 | 0.00 | 39 | 1021.0 |
| 20260905212526 | 75 | 32 | 4.0 | 8.0 | 0.00 | 0.00 | 0.00 | 38 | 1021.0 |
| 20260905212026 | 75 | 38 | 3.0 | 9.0 | 0.00 | 0.00 | 0.00 | 38 | 1021.0 |
| 20260905211603 | 75 | 70 | 4.0 | 9.0 | 0.00 | 0.00 | 0.00 | 38 | 1021.0 |
| 20260905211026 | 76 | 32 | 1.0 | 3.0 | 0.00 | 0.00 | 0.00 | 38 | 1020.9 |
| 20260905210526 | 75 | 36 | 1.0 | 5.0 | 0.00 | 0.00 | 0.00 | 38 | 1020.8 |
| 20260905205524 | 74 | 48 | 3.0 | 6.0 | 0.00 | 0.00 | 0.00 | 39 | 1020.7 |
| 20260905205024 | 72 | 40 | 2.0 | 4.0 | 0.00 | 0.00 | 0.00 | 42 | 1020.7 |
| 20260905204551 | 71 | 119 | 1.0 | 3.0 | 0.00 | 0.00 | 0.00 | 44 | 1020.7 |
| 20260905204025 | 72 | 102 | 1.0 | 3.0 | 0.00 | 0.00 | 0.00 | 43 | 1020.7 |
| 20260905203524 | 73 | 115 | 1.0 | 3.0 | 0.00 | 0.00 | 0.00 | 42 | 1020.6 |
| 20260905203108 | 72 | 101 | 2.0 | 3.0 | 0.00 | 0.00 | 0.00 | 43 | 1020.8 |
| 20260905202528 | 72 | 120 | 2.0 | 3.0 | 0.00 | 0.00 | 0.00 | 43 | 1020.8 |
| 20260905202025 | 72 | 110 | 2.0 | 3.0 | 0.00 | 0.00 | 0.00 | 43 | 1020.7 |
| 20260905201551 | 72 | 111 | 2.0 | 3.0 | 0.00 | 0.00 | 0.00 | 44 | 1020.7 |
| 20260905201023 | 73 | 113 | 1.0 | 2.0 | 0.00 | 0.00 | 0.00 | 42 | 1020.7 |
| 20260905200523 | 74 | 113 | 1.0 | 2.0 | 0.00 | 0.00 | 0.00 | 41 | 1020.7 |
| 20260905200048 | 75 | 113 | 0.0 | 2.0 | 0.00 | 0.00 | 0.00 | 40 | 1020.7 |
| 20260905195523 | 76 | 113 | 0.0 | 2.0 | 0.00 | 0.00 | 0.00 | 38 | 1020.8 |
| 20260905195024 | 77 | 350 | 0.0 | 3.0 | 0.00 | 0.00 | 0.00 | 37 | 1020.7 |
| 20260905194551 | 77 | 0 | 0.0 | 4.0 | 0.00 | 0.00 | 0.00 | 37 | 1020.7 |
| 20260905194025 | 77 | 350 | 1.0 | 4.0 | 0.00 | 0.00 | 0.00 | 37 | 1020.7 |
| 20260905193525 | 76 | 350 | 1.0 | 4.0 | 0.00 | 0.00 | 0.00 | 38 | 1020.7 |
| 20260905193048 | 76 | 334 | 1.0 | 4.0 | 0.00 | 0.00 | 0.00 | 38 | 1020.7 |
| 20260905192524 | 76 | 331 | 1.0 | 4.0 | 0.00 | 0.00 | 0.00 | 38 | 1020.7 |
| 20260905192027 | 76 | 19 | 1.0 | 3.0 | 0.00 | 0.00 | 0.00 | 38 | 1020.7 |
| 20260905191546 | 76 | 19 | 0.0 | 2.0 | 0.00 | 0.00 | 0.00 | 39 | 1020.6 |
| 20260905191029 | 76 | 19 | 0.0 | 2.0 | 0.00 | 0.00 | 0.00 | 39 | 1020.5 |
| 20260905190524 | 76 | 19 | 0.0 | 2.0 | 0.00 | 0.00 | 0.00 | 40 | 1020.4 |
| 20260905190047 | 75 | 0 | 0.0 | 2.0 | 0.00 | 0.00 | 0.00 | 40 | 1020.3 |
| 20260905185524 | 75 | 0 | 0.0 | 2.0 | 0.00 | 0.00 | 0.00 | 42 | 1020.4 |
| 20260905185024 | 74 | 19 | 0.0 | 2.0 | 0.00 | 0.00 | 0.00 | 43 | 1020.4 |
| 20260905184555 | 74 | 0 | 0.0 | 0.0 | 0.00 | 0.00 | 0.00 | 44 | 1020.4 |
| 20260905184024 | 75 | 0 | 0.0 | 1.0 | 0.00 | 0.00 | 0.00 | 44 | 1020.3 |
| 20260905183526 | 76 | 0 | 0.0 | 1.0 | 0.00 | 0.00 | 0.00 | 43 | 1020.3 |
| 20260905183051 | 76 | 19 | 0.0 | 1.0 | 0.00 | 0.00 | 0.00 | 43 | 1020.4 |
| 20260905182526 | 75 | 0 | 0.0 | 0.0 | 0.00 | 0.00 | 0.00 | 44 | 1020.3 |
| 20260905182025 | 75 | 0 | 0.0 | 0.0 | 0.00 | 0.00 | 0.00 | 44 | 1020.2 |
| 20260905181557 | 75 | 0 | 0.0 | 0.0 | 0.00 | 0.00 | 0.00 | 44 | 1020.2 |
| 20260905181026 | 75 | 0 | 0.0 | 0.0 | 0.00 | 0.00 | 0.00 | 44 | 1020.1 |
| 20260905180526 | 75 | 0 | 0.0 | 0.0 | 0.00 | 0.00 | 0.00 | 44 | 1020.0 |
| 20260905175527 | 76 | 0 | 0.0 | 0.0 | 0.00 | 0.00 | 0.00 | 42 | 1020.0 |
| 20260905175026 | 77 | 0 | 0.0 | 0.0 | 0.00 | 0.00 | 0.00 | 42 | 1020.0 |
| 20260905174553 | 78 | 0 | 0.0 | 0.0 | 0.00 | 0.00 | 0.00 | 41 | 1020.0 |
| 20260905174025 | 78 | 0 | 0.0 | 0.0 | 0.00 | 0.00 | 0.00 | 40 | 1020.0 |
| 20260905173528 | 79 | 0 | 0.0 | 0.0 | 0.00 | 0.00 | 0.00 | 39 | 1020.1 |
| 20260905173058 | 79 | 0 | 0.0 | 0.0 | 0.00 | 0.00 | 0.00 | 39 | 1019.9 |
| 20260905172524 | 80 | 0 | 0.0 | 1.0 | 0.00 | 0.00 | 0.00 | 38 | 1020.0 |
| 20260905172024 | 81 | 0 | 0.0 | 1.0 | 0.00 | 0.00 | 0.00 | 37 | 1020.0 |
| 20260905171550 | 82 | 0 | 0.0 | 3.0 | 0.00 | 0.00 | 0.00 | 36 | 1019.9 |
| 20260905171024 | 83 | 0 | 0.0 | 3.0 | 0.00 | 0.00 | 0.00 | 35 | 1020.0 |
| 20260905170525 | 84 | 214 | 0.0 | 2.0 | 0.00 | 0.00 | 0.00 | 34 | 1019.9 |
| 20260905170046 | 84 | 0 | 0.0 | 4.0 | 0.00 | 0.00 | 0.00 | 34 | 1020.0 |
| 20260905165525 | 84 | 259 | 0.0 | 4.0 | 0.00 | 0.00 | 0.00 | 33 | 1019.9 |
| 20260905165027 | 84 | 241 | 1.0 | 5.0 | 0.00 | 0.00 | 0.00 | 33 | 1019.9 |
| 20260905164546 | 85 | 0 | 2.0 | 5.0 | 0.00 | 0.00 | 0.00 | 33 | 1019.9 |
| 20260905164029 | 85 | 247 | 1.0 | 6.0 | 0.00 | 0.00 | 0.00 | 32 | 1019.8 |
| 20260905163525 | 85 | 284 | 1.0 | 6.0 | 0.00 | 0.00 | 0.00 | 32 | 1019.8 |
| 20260905163051 | 85 | 307 | 2.0 | 6.0 | 0.00 | 0.00 | 0.00 | 32 | 1019.9 |
| 20260905162527 | 85 | 281 | 1.0 | 10.0 | 0.00 | 0.00 | 0.00 | 32 | 1019.9 |
| 20260905162027 | 85 | 255 | 4.0 | 10.0 | 0.00 | 0.00 | 0.00 | 32 | 1019.8 |
| 20260905161548 | 85 | 262 | 4.0 | 10.0 | 0.00 | 0.00 | 0.00 | 32 | 1019.8 |
| 20260905161026 | 86 | 263 | 3.0 | 11.0 | 0.00 | 0.00 | 0.00 | 31 | 1019.8 |
| 20260905160526 | 86 | 171 | 5.0 | 12.0 | 0.00 | 0.00 | 0.00 | 31 | 1019.8 |
| 20260905160048 | 86 | 293 | 4.0 | 12.0 | 0.00 | 0.00 | 0.00 | 31 | 1019.8 |
| 20260905155526 | 87 | 196 | 3.0 | 11.0 | 0.00 | 0.00 | 0.00 | 30 | 1019.8 |
| 20260905155024 | 86 | 252 | 4.0 | 11.0 | 0.00 | 0.00 | 0.00 | 30 | 1019.8 |
| 20260905154558 | 86 | 251 | 4.0 | 12.0 | 0.00 | 0.00 | 0.00 | 30 | 1019.7 |
| 20260905154029 | 86 | 243 | 4.0 | 12.0 | 0.00 | 0.00 | 0.00 | 31 | 1019.5 |
| 20260905153525 | 86 | 298 | 3.0 | 12.0 | 0.00 | 0.00 | 0.00 | 31 | 1019.6 |
| 20260905153047 | 86 | 212 | 3.0 | 11.0 | 0.00 | 0.00 | 0.00 | 31 | 1019.6 |
| 20260905152525 | 86 | 231 | 5.0 | 14.0 | 0.00 | 0.00 | 0.00 | 31 | 1019.4 |
| 20260905152029 | 86 | 239 | 5.0 | 14.0 | 0.00 | 0.00 | 0.00 | 30 | 1019.5 |
| 20260905151549 | 87 | 186 | 6.0 | 14.0 | 0.00 | 0.00 | 0.00 | 30 | 1019.5 |
| 20260905151028 | 87 | 197 | 5.0 | 16.0 | 0.00 | 0.00 | 0.00 | 30 | 1019.5 |
| 20260905150526 | 87 | 242 | 6.0 | 16.0 | 0.00 | 0.00 | 0.00 | 30 | 1019.5 |
| 20260905150047 | 88 | 255 | 5.0 | 15.0 | 0.00 | 0.00 | 0.00 | 30 | 1019.4 |
| 20260905145526 | 88 | 195 | 6.0 | 15.0 | 0.00 | 0.00 | 0.00 | 29 | 1019.5 |
| 20260905145025 | 87 | 202 | 6.0 | 15.0 | 0.00 | 0.00 | 0.00 | 30 | 1019.6 |
| 20260905144552 | 87 | 265 | 5.0 | 15.0 | 0.00 | 0.00 | 0.00 | 30 | 1019.6 |
| 20260905144025 | 87 | 250 | 7.0 | 15.0 | 0.00 | 0.00 | 0.00 | 30 | 1019.5 |
| 20260905143524 | 88 | 250 | 7.0 | 15.0 | 0.00 | 0.00 | 0.00 | 30 | 1019.6 |
| 20260905143050 | 88 | 210 | 4.0 | 16.0 | 0.00 | 0.00 | 0.00 | 30 | 1019.6 |
| 20260905142523 | 88 | 281 | 7.0 | 16.0 | 0.00 | 0.00 | 0.00 | 30 | 1019.6 |
| 20260905142026 | 88 | 165 | 6.0 | 16.0 | 0.00 | 0.00 | 0.00 | 30 | 1019.6 |
| 20260905141550 | 88 | 269 | 7.0 | 16.0 | 0.00 | 0.00 | 0.00 | 30 | 1019.6 |
| 20260905141028 | 88 | 242 | 7.0 | 15.0 | 0.00 | 0.00 | 0.00 | 30 | 1019.7 |
| 20260905140527 | 88 | 213 | 6.0 | 15.0 | 0.00 | 0.00 | 0.00 | 30 | 1019.5 |
| 20260905140050 | 89 | 293 | 7.0 | 14.0 | 0.00 | 0.00 | 0.00 | 30 | 1019.5 |
| 20260905135525 | 89 | 262 | 5.0 | 15.0 | 0.00 | 0.00 | 0.00 | 30 | 1019.6 |
| 20260905135028 | 89 | 199 | 7.0 | 15.0 | 0.00 | 0.00 | 0.00 | 30 | 1019.6 |
| 20260905134556 | 89 | 243 | 5.0 | 16.0 | 0.00 | 0.00 | 0.00 | 30 | 1019.7 |
| 20260905134028 | 89 | 236 | 7.0 | 16.0 | 0.00 | 0.00 | 0.00 | 30 | 1019.8 |
| 20260905133523 | 89 | 264 | 4.0 | 13.0 | 0.00 | 0.00 | 0.00 | 29 | 1019.8 |
| 20260905133057 | 89 | 294 | 5.0 | 16.0 | 0.00 | 0.00 | 0.00 | 30 | 1019.7 |
| 20260905132525 | 88 | 259 | 5.0 | 16.0 | 0.00 | 0.00 | 0.00 | 30 | 1019.8 |
| 20260905132025 | 88 | 237 | 7.0 | 16.0 | 0.00 | 0.00 | 0.00 | 30 | 1019.8 |
| 20260905131551 | 88 | 207 | 6.0 | 12.0 | 0.00 | 0.00 | 0.00 | 30 | 1020.0 |
| 20260905131025 | 89 | 221 | 6.0 | 17.0 | 0.00 | 0.00 | 0.00 | 30 | 1019.9 |
| 20260905130523 | 88 | 265 | 5.0 | 17.0 | 0.00 | 0.00 | 0.00 | 30 | 1019.9 |
| 20260905130046 | 88 | 225 | 8.0 | 17.0 | 0.00 | 0.00 | 0.00 | 30 | 1020.1 |
| 20260905125526 | 89 | 285 | 4.0 | 15.0 | 0.00 | 0.00 | 0.00 | 29 | 1020.1 |
| 20260905125025 | 88 | 238 | 6.0 | 15.0 | 0.00 | 0.00 | 0.00 | 29 | 1020.1 |
| 20260905124546 | 88 | 154 | 6.0 | 15.0 | 0.00 | 0.00 | 0.00 | 30 | 1020.0 |
| 20260905124026 | 88 | 253 | 6.0 | 15.0 | 0.00 | 0.00 | 0.00 | 29 | 1020.0 |
| 20260905123525 | 88 | 195 | 7.0 | 15.0 | 0.00 | 0.00 | 0.00 | 29 | 1020.2 |
| 20260905123055 | 89 | 200 | 5.0 | 13.0 | 0.00 | 0.00 | 0.00 | 29 | 1020.1 |
| 20260905122528 | 89 | 285 | 4.0 | 13.0 | 0.00 | 0.00 | 0.00 | 29 | 1020.2 |
| 20260905122025 | 89 | 306 | 5.0 | 16.0 | 0.00 | 0.00 | 0.00 | 29 | 1020.2 |
| 20260905121547 | 88 | 210 | 5.0 | 16.0 | 0.00 | 0.00 | 0.00 | 29 | 1020.5 |
| 20260905121024 | 88 | 226 | 6.0 | 15.0 | 0.00 | 0.00 | 0.00 | 29 | 1020.4 |
| 20260905120525 | 88 | 278 | 7.0 | 15.0 | 0.00 | 0.00 | 0.00 | 29 | 1020.3 |
| 20260905120047 | 88 | 246 | 6.0 | 14.0 | 0.00 | 0.00 | 0.00 | 29 | 1020.3 |
| 20260905115527 | 87 | 258 | 7.0 | 15.0 | 0.00 | 0.00 | 0.00 | 29 | 1020.5 |
| 20260905115026 | 88 | 299 | 6.0 | 15.0 | 0.00 | 0.00 | 0.00 | 29 | 1020.4 |
| 20260905114545 | 88 | 304 | 6.0 | 16.0 | 0.00 | 0.00 | 0.00 | 30 | 1020.5 |
| 20260905114028 | 88 | 280 | 6.0 | 16.0 | 0.00 | 0.00 | 0.00 | 29 | 1020.4 |
| 20260905113526 | 88 | 181 | 5.0 | 16.0 | 0.00 | 0.00 | 0.00 | 29 | 1020.4 |
| 20260905113048 | 88 | 232 | 5.0 | 16.0 | 0.00 | 0.00 | 0.00 | 29 | 1020.6 |
| 20260905112526 | 87 | 278 | 6.0 | 16.0 | 0.00 | 0.00 | 0.00 | 29 | 1020.5 |
| 20260905112023 | 88 | 248 | 7.0 | 14.0 | 0.00 | 0.00 | 0.00 | 30 | 1020.5 |
| 20260905111545 | 88 | 247 | 5.0 | 14.0 | 0.00 | 0.00 | 0.00 | 29 | 1020.6 |
| 20260905111025 | 88 | 214 | 4.0 | 13.0 | 0.00 | 0.00 | 0.00 | 29 | 1020.5 |
| 20260905110527 | 87 | 224 | 5.0 | 18.0 | 0.00 | 0.00 | 0.00 | 29 | 1020.5 |
| 20260905110059 | 87 | 277 | 5.0 | 18.0 | 0.00 | 0.00 | 0.00 | 29 | 1020.6 |
| 20260905105526 | 87 | 244 | 8.0 | 18.0 | 0.00 | 0.00 | 0.00 | 28 | 1020.8 |
| 20260905105025 | 88 | 276 | 4.0 | 13.0 | 0.00 | 0.00 | 0.00 | 28 | 1020.7 |
| 20260905104554 | 87 | 223 | 6.0 | 13.0 | 0.00 | 0.00 | 0.00 | 28 | 1020.6 |
| 20260905104029 | 87 | 236 | 5.0 | 16.0 | 0.00 | 0.00 | 0.00 | 28 | 1020.6 |
| 20260905103525 | 87 | 243 | 5.0 | 16.0 | 0.00 | 0.00 | 0.00 | 28 | 1020.6 |
| 20260905103051 | 86 | 230 | 5.0 | 13.0 | 0.00 | 0.00 | 0.00 | 29 | 1020.7 |
| 20260905102524 | 87 | 271 | 6.0 | 13.0 | 0.00 | 0.00 | 0.00 | 28 | 1020.8 |
| 20260905102027 | 87 | 259 | 5.0 | 13.0 | 0.00 | 0.00 | 0.00 | 28 | 1020.7 |
| 20260905101602 | 87 | 294 | 6.0 | 13.0 | 0.00 | 0.00 | 0.00 | 28 | 1020.9 |
| 20260905101026 | 87 | 267 | 2.0 | 11.0 | 0.00 | 0.00 | 0.00 | 27 | 1020.7 |
| 20260905100526 | 87 | 179 | 3.0 | 11.0 | 0.00 | 0.00 | 0.00 | 27 | 1020.7 |
| 20260905100046 | 87 | 251 | 5.0 | 11.0 | 0.00 | 0.00 | 0.00 | 27 | 1020.8 |
| 20260905095529 | 88 | 243 | 4.0 | 11.0 | 0.00 | 0.00 | 0.00 | 27 | 1020.9 |
| 20260905095024 | 88 | 170 | 4.0 | 10.0 | 0.00 | 0.00 | 0.00 | 26 | 1020.8 |
| 20260905094546 | 87 | 224 | 4.0 | 10.0 | 0.00 | 0.00 | 0.00 | 27 | 1020.8 |
| 20260905094023 | 87 | 278 | 4.0 | 10.0 | 0.00 | 0.00 | 0.00 | 26 | 1020.8 |
| 20260905093527 | 87 | 215 | 5.0 | 10.0 | 0.00 | 0.00 | 0.00 | 26 | 1020.9 |
| 20260905093048 | 86 | 254 | 4.0 | 10.0 | 0.00 | 0.00 | 0.00 | 26 | 1020.8 |
| 20260905092523 | 86 | 247 | 6.0 | 13.0 | 0.00 | 0.00 | 0.00 | 25 | 1020.8 |
| 20260905092026 | 86 | 249 | 6.0 | 13.0 | 0.00 | 0.00 | 0.00 | 26 | 1020.8 |
| 20260905091559 | 86 | 290 | 4.0 | 12.0 | 0.00 | 0.00 | 0.00 | 26 | 1020.8 |
| 20260905091027 | 86 | 287 | 5.0 | 12.0 | 0.00 | 0.00 | 0.00 | 27 | 1020.8 |
| 20260905090526 | 86 | 271 | 5.0 | 12.0 | 0.00 | 0.00 | 0.00 | 26 | 1020.9 |
| 20260905090050 | 87 | 281 | 3.0 | 10.0 | 0.00 | 0.00 | 0.00 | 26 | 1020.8 |
| 20260905085527 | 87 | 283 | 3.0 | 9.0 | 0.00 | 0.00 | 0.00 | 26 | 1020.9 |
| 20260905085026 | 87 | 256 | 2.0 | 9.0 | 0.00 | 0.00 | 0.00 | 26 | 1020.8 |
| 20260905084546 | 86 | 314 | 2.0 | 7.0 | 0.00 | 0.00 | 0.00 | 26 | 1020.8 |
| 20260905084024 | 86 | 203 | 2.0 | 8.0 | 0.00 | 0.00 | 0.00 | 26 | 1020.9 |
| 20260905083524 | 85 | 265 | 2.0 | 8.0 | 0.00 | 0.00 | 0.00 | 25 | 1020.9 |
| 20260905083045 | 86 | 335 | 2.0 | 6.0 | 0.00 | 0.00 | 0.00 | 25 | 1020.9 |
| 20260905082525 | 85 | 262 | 3.0 | 6.0 | 0.00 | 0.00 | 0.00 | 25 | 1020.9 |
| 20260905082026 | 85 | 280 | 2.0 | 6.0 | 0.00 | 0.00 | 0.00 | 25 | 1020.9 |
| 20260905081546 | 85 | 290 | 2.0 | 5.0 | 0.00 | 0.00 | 0.00 | 26 | 1021.0 |
| 20260905081023 | 84 | 278 | 2.0 | 5.0 | 0.00 | 0.00 | 0.00 | 26 | 1020.8 |
| 20260905080523 | 84 | 280 | 3.0 | 8.0 | 0.00 | 0.00 | 0.00 | 26 | 1020.9 |
| 20260905075524 | 84 | 243 | 2.0 | 6.0 | 0.00 | 0.00 | 0.00 | 27 | 1020.8 |
| 20260905075025 | 84 | 271 | 2.0 | 6.0 | 0.00 | 0.00 | 0.00 | 27 | 1020.8 |
| 20260905074547 | 84 | 0 | 0.0 | 8.0 | 0.00 | 0.00 | 0.00 | 27 | 1020.7 |
| 20260905074026 | 84 | 308 | 1.0 | 8.0 | 0.00 | 0.00 | 0.00 | 27 | 1020.7 |
| 20260905073525 | 84 | 283 | 0.0 | 4.0 | 0.00 | 0.00 | 0.00 | 28 | 1020.7 |
| 20260905073047 | 84 | 292 | 0.0 | 3.0 | 0.00 | 0.00 | 0.00 | 28 | 1020.7 |
| 20260905072526 | 83 | 165 | 0.0 | 3.0 | 0.00 | 0.00 | 0.00 | 30 | 1020.6 |
| 20260905072029 | 82 | 281 | 0.0 | 3.0 | 0.00 | 0.00 | 0.00 | 30 | 1020.6 |
| 20260905071545 | 82 | 288 | 1.0 | 4.0 | 0.00 | 0.00 | 0.00 | 29 | 1020.6 |
| 20260905071023 | 83 | 278 | 2.0 | 4.0 | 0.00 | 0.00 | 0.00 | 28 | 1020.6 |
| 20260905070524 | 83 | 0 | 0.0 | 2.0 | 0.00 | 0.00 | 0.00 | 28 | 1020.5 |
| 20260905070051 | 82 | 0 | 0.0 | 2.0 | 0.00 | 0.00 | 0.00 | 28 | 1020.5 |
| 20260905065525 | 81 | 0 | 0.0 | 2.0 | 0.00 | 0.00 | 0.00 | 29 | 1020.5 |
| 20260905065026 | 81 | 269 | 0.0 | 2.0 | 0.00 | 0.00 | 0.00 | 30 | 1020.5 |
| 20260905064549 | 80 | 253 | 0.0 | 2.0 | 0.00 | 0.00 | 0.00 | 33 | 1020.7 |
| 20260905064027 | 80 | 0 | 0.0 | 1.0 | 0.00 | 0.00 | 0.00 | 37 | 1020.6 |
| 20260905063526 | 80 | 0 | 0.0 | 0.0 | 0.00 | 0.00 | 0.00 | 38 | 1020.6 |
| 20260905063056 | 80 | 0 | 0.0 | 0.0 | 0.00 | 0.00 | 0.00 | 37 | 1020.6 |
| 20260905062526 | 80 | 0 | 0.0 | 0.0 | 0.00 | 0.00 | 0.00 | 38 | 1020.7 |
| 20260905062026 | 78 | 0 | 0.0 | 0.0 | 0.00 | 0.00 | 0.00 | 39 | 1020.6 |
| 20260905061544 | 77 | 0 | 0.0 | 0.0 | 0.00 | 0.00 | 0.00 | 41 | 1020.7 |
| 20260905061023 | 76 | 0 | 0.0 | 0.0 | 0.00 | 0.00 | 0.00 | 42 | 1020.8 |
| 20260905060526 | 76 | 0 | 0.0 | 0.0 | 0.00 | 0.00 | 0.00 | 42 | 1020.7 |
| 20260905060047 | 75 | 0 | 0.0 | 0.0 | 0.00 | 0.00 | 0.00 | 42 | 1020.7 |
| 20260905055523 | 75 | 0 | 0.0 | 0.0 | 0.00 | 0.00 | 0.00 | 42 | 1020.6 |
| 20260905055024 | 75 | 0 | 0.0 | 0.0 | 0.00 | 0.00 | 0.00 | 41 | 1020.7 |
| 20260905054555 | 75 | 0 | 0.0 | 2.0 | 0.00 | 0.00 | 0.00 | 39 | 1020.6 |
| 20260905054025 | 74 | 0 | 0.0 | 2.0 | 0.00 | 0.00 | 0.00 | 41 | 1020.7 |
| 20260905053524 | 73 | 80 | 0.0 | 3.0 | 0.00 | 0.00 | 0.00 | 40 | 1020.6 |
| 20260905053049 | 73 | 0 | 0.0 | 4.0 | 0.00 | 0.00 | 0.00 | 41 | 1020.6 |
| 20260905052524 | 72 | 68 | 2.0 | 4.0 | 0.00 | 0.00 | 0.00 | 42 | 1020.5 |
| 20260905052027 | 71 | 76 | 2.0 | 4.0 | 0.00 | 0.00 | 0.00 | 43 | 1020.5 |
| 20260905051545 | 71 | 54 | 2.0 | 4.0 | 0.00 | 0.00 | 0.00 | 44 | 1020.5 |
| 20260905051024 | 71 | 61 | 2.0 | 6.0 | 0.00 | 0.00 | 0.00 | 45 | 1020.5 |
| 20260905050526 | 70 | 63 | 2.0 | 6.0 | 0.00 | 0.00 | 0.00 | 45 | 1020.5 |
| 20260905050047 | 70 | 100 | 2.0 | 7.0 | 0.00 | 0.00 | 0.00 | 45 | 1020.5 |
| 20260905045523 | 70 | 56 | 3.0 | 7.0 | 0.00 | 0.00 | 0.00 | 46 | 1020.4 |
| 20260905045027 | 70 | 53 | 3.0 | 7.0 | 0.00 | 0.00 | 0.00 | 46 | 1020.4 |
| 20260905044551 | 70 | 77 | 2.0 | 7.0 | 0.00 | 0.00 | 0.00 | 47 | 1020.4 |
| 20260905044026 | 69 | 69 | 4.0 | 7.0 | 0.00 | 0.00 | 0.00 | 49 | 1020.4 |
| 20260905043524 | 68 | 61 | 5.0 | 7.0 | 0.00 | 0.00 | 0.00 | 51 | 1020.3 |
| 20260905043048 | 66 | 47 | 4.0 | 7.0 | 0.00 | 0.00 | 0.00 | 54 | 1020.3 |
| 20260905042523 | 64 | 0 | 0.0 | 2.0 | 0.00 | 0.00 | 0.00 | 58 | 1020.3 |
| 20260905042023 | 64 | 116 | 1.0 | 2.0 | 0.00 | 0.00 | 0.00 | 58 | 1020.3 |
| 20260905041547 | 64 | 116 | 1.0 | 2.0 | 0.00 | 0.00 | 0.00 | 57 | 1020.3 |
| 20260905041025 | 65 | 115 | 1.0 | 2.0 | 0.00 | 0.00 | 0.00 | 56 | 1020.3 |
| 20260905040524 | 65 | 108 | 0.0 | 2.0 | 0.00 | 0.00 | 0.00 | 55 | 1020.3 |
| 20260905040055 | 65 | 0 | 0.0 | 1.0 | 0.00 | 0.00 | 0.00 | 55 | 1020.3 |
| 20260905035524 | 64 | 116 | 0.0 | 2.0 | 0.00 | 0.00 | 0.00 | 56 | 1020.3 |
| 20260905035024 | 63 | 0 | 0.0 | 3.0 | 0.00 | 0.00 | 0.00 | 58 | 1020.5 |
| 20260905034546 | 63 | 116 | 2.0 | 3.0 | 0.00 | 0.00 | 0.00 | 60 | 1020.4 |
| 20260905034023 | 62 | 117 | 2.0 | 3.0 | 0.00 | 0.00 | 0.00 | 61 | 1020.4 |
| 20260905033526 | 62 | 117 | 2.0 | 3.0 | 0.00 | 0.00 | 0.00 | 61 | 1020.4 |
| 20260905033046 | 62 | 117 | 2.0 | 3.0 | 0.00 | 0.00 | 0.00 | 61 | 1020.4 |
| 20260905032526 | 62 | 117 | 3.0 | 3.0 | 0.00 | 0.00 | 0.00 | 61 | 1020.4 |